Regional Weather Roundup
Issued by NWS Sioux Falls, SD

Home | Current Version | Previous Version | Text Only | Print | Product List | Glossary On
Versions: 1 2 3 4 5 6 7 8 9 10 11 12 13 14 15 16 17 18 19 20 21 22 23 24 25 26 27 28 29 30 31 32 33 34 35 36 37 38 39 40 41 42 43 44 45 46 47 48 49 50
000
ASUS43 KFSD 031210
RWRFSD

WEATHER ROUNDUP FOR SE SOUTH DAKOTA/SW MINNESOTA/NW IOWA
NATIONAL WEATHER SERVICE SIOUX FALLS SD
600 AM CST TUE MAR 03 2015

NOTE: "FAIR" INDICATES FEW OR NO CLOUDS BELOW 12,000 FEET WITH NO
SIGNIFICANT WEATHER AND OR OBSTRUCTIONS TO VISIBILITY.


SDZ038>040-050-052>070-031300-
SOUTHEAST SOUTH DAKOTA

CITY           SKY/WX    TMP DP  RH WIND       PRES   REMARKS
CHAMBERLAIN    LGT SNOW  22  19  91 N26G35    29.76R VSB 3/4 WCI   5
6HR MIN TEMP:  22; 6HR MAX TEMP:  33; 6HR PCP:  0.04;

HURON          LGT SNOW  25  24  96 W5        29.70R VSB 3/4 WCI  19
6HR MIN TEMP:  25; 6HR MAX TEMP:  31; 6HR PCP:  0.09;

MADISON        LGT SNOW  23  23 100 SW7       29.67R WCI  15
MITCHELL       LGT SNOW  26  24  92 CALM      29.68S FOG
6HR MIN TEMP:  26; 6HR MAX TEMP:  32; 6HR PCP:  0.01;

SIOUX FALLS    SNOW      25  22  88 CALM      29.67R VSB 1/2
6HR MIN TEMP:  25; 6HR MAX TEMP:  28; 6HR PCP:  0.02;

WINNER         LGT SNOW  22  16  78 N31G41    29.77R VSB 3/4 WCI   4
YANKTON        CLOUDY    28  19  69 CALM      29.67S
$$

MNZ071-072-080-081-089-090-097-098-031300-
SOUTHWEST MINNESOTA

CITY           SKY/WX    TMP DP  RH WIND       PRES   REMARKS
FAIRMONT       CLOUDY    25  18  74 SE9       29.67F WCI  15
JACKSON        CLOUDY    25  21  86 SE7       29.67F WCI  17
LUVERNE        LGT SNOW  27  23  86 CALM      29.67S
MARSHALL       CLOUDY    23  18  80 S7        29.69S WCI  15
6HR MIN TEMP:  23; 6HR MAX TEMP:  27;

MONTEVIDEO     LGT SNOW  23  21  93 S6        29.69F WCI  16
PIPESTONE      LGT SNOW  23  19  86 CALM      29.65R VSB 1
REDWOOD FALLS  CLOUDY    23  18  81 SE9       29.69F WCI  13
TRACY          FLURRIES  25  21  85 S6        29.67F WCI  18
WINDOM         LGT SNOW  23  19  86 SE7       29.67F WCI  15
WORTHINGTON    CLOUDY    23  18  80 S6        29.67F WCI  16
$$

IAZ001>003-012>014-020>022-031-032-NEZ013-014-SDZ071-031300-
NORTHWEST IOWA

CITY           SKY/WX    TMP DP  RH WIND       PRES   REMARKS
CHEROKEE       CLOUDY    26  25  96 CALM      29.68R FOG
DENISON        CLOUDY    30  30 100 S8        29.65S FOG     WCI  23
ESTHERVILLE    CLOUDY    23  20  88 S8        29.67F WCI  14
LE MARS        CLOUDY    28  27  93 S8        29.68S FOG     WCI  20
ORANGE CITY    CLOUDY    27  21  80 CALM      29.65F
SHELDON        CLOUDY    25  23  93 S8        29.65F WCI  16
SIOUX CITY     CLOUDY    30  25  81 S8        29.68S WCI  22
6HR MIN TEMP:  30; 6HR MAX TEMP:  31;

SPENCER        CLOUDY    26  21  81 SE5       29.67F WCI  20
6HR MIN TEMP:  25; 6HR MAX TEMP:  27;

STORM LAKE     CLOUDY    25  25 100 SE8       29.66F FOG     WCI  16
$$

ABBREVIATIONS USED IN REMARKS
   TC - TEMPERATURE IN CELSIUS
  WCI - WIND CHILL INDEX
   HX - HEAT INDEX
  VSB - VISIBILITY




USA.gov is the U.S. government's official web portal to all federal, state and local government web resources and services.